Starlink 30446

operational
NORAD ID: 57872 Int'l Des: 2023-144 Owner: SPXS Country: US Constellation: starlink
LEOCIRCULAR

About Starlink 30446

Description loading...

Live Position

Loading 3D Globe...

Upcoming Passes

Altitude History

Altitude vs Time

uPlot chart will show altitude changes over time

Two-Line Element Set

1 57872U 23144J 25354.37510822 .00000657 00000-0 63707-4 0 9995
2 57872 43.0054 345.3252 0001295 271.8465 88.2229 15.02539115125563
Epoch: Dec 20, 2025 • Age: 12 hours

Current Status

Altitude 567.5 km
Velocity 7.58 km/s
Sub-Earth Point -32.58°S, 157.85°E
Launch Date Sep 16, 2023
Age 2.2 years
Type internet

Technical Details

Classification Payload
Mass 730.00 kg
Dry Mass 700.00 kg
Total Mass 730.00 kg
Length 0.30 m
Diameter 4.10 m
Span 29.00 m
Shape Box + pan
Manufacturer SPXS
Bus Type Starlink V2M
Phase Status In Orbit
Owner/State SPXS/US

Large Constellations

Loading constellations...